Location: Ferchesar
(52.6477°N, 12.4298°E)
Time: 04:05:07
(UTC+02:00)

Vanguard 3 - Pass Details

Date: 28 February 2021
Orbit: 508 x 3262 km, 33.3° (Epoch: 15 April)

Event Time Altitude Azimuth Distance (km) Brightness Sun altitude
Rises 17:31:31 0° 238° (WSW) 6,942 13.7 1.5°
Reaches altitude 10° 17:37:25 10° 230° (SW) 5,606 12.7 0.7°
Maximum altitude 17:49:41 29° 180° (S) 3,331 10.4 -1.1°
Drops below altitude 10° 17:57:58 10° 126° (SE) 3,714 10.1 -2.4°
Sets 18:00:57 0° 114° (ESE) 4,339 10.4 -2.8°
